Dimas Wibowo

Chefscout - Dewa United
22 Feb 2028
Dienstag
Verarbeitung

Persönlichkeit

Anpassungsfähigkeit (10) Ehrgeiz (14) Kontroverse (17) Loyalität (3) Druck (11) Professionalität (1) Fairness (19) Temperament (15)

Profil

Trainerstil Demokratisch
Lizenz Nationale B
Entschlossenheit 3
Menschenführung 2
Motivation 7
Disziplin 6
Arbeitszufriedenheit
100%
Ermüdung
0%
Rolle Chefscout
Gehalt 44.9K p/W
Vertrag 14.03.2030

Leistung

Verhalten Gut
Trainingseffektivität
31%
Spielerentwicklung
35%
Verletzungsprävention
15%
Taktische Umsetzung
25%

Letzte Ereignisse

Nahm an einer Scouting-Besprechung teil 7T her
Spieler begutachtet 7T her
Spieler begutachtet 7T her
Spiel beobachtet 7T her
Spieler begutachtet 14T her
Spieler begutachtet 14T her
Spiel beobachtet 14T her
Spieler begutachtet 14T her

Aktuell beobachtet

148
Spieler Verein Status Fähigkeit Vertrauen Beobachtet Zuletzt beobachtet Letzte Stimme
Carlos Torres Orenburg Aktiv 101 / 91 40% 2 21.02.2028 -
Derrick Kyere Lokeren Aktiv 117 / 89 40% 1 21.02.2028 -
Jacopo Manconi Casertana Aktiv 121 / 111 40% 1 18.02.2028 -
Leonardo Mancuso Arezzo Aktiv 119 / 106 40% 1 18.02.2028 -
Ettore Gliozzi Mantova Aktiv 106 / 111 40% 1 15.02.2028 -
Miguel Sandberg GIF Sundsvall Aktiv 87 / 107 40% 1 15.02.2028 -
Said Aliev Rotor Aktiv 80 / 109 40% 2 12.02.2028 -
Andrés Dieppa Metalurh Zaporizhzhia Aktiv 91 / 110 40% 1 12.02.2028 -
Gianluca Caprari Padova Aktiv 113 / 114 40% 1 11.02.2028 -
Gedeon Guzina Orenburg Aktiv 123 / 114 40% 1 10.02.2028 -
Simone Ianesi Pianese Aktiv 116 / 119 40% 1 10.02.2028 -
Cristhian Medina Dinamo Brest Aktiv 89 / 98 40% 2 08.02.2028 -
Thomas Henry Reggiana Aktiv 113 / 111 40% 1 08.02.2028 -
Anderson Gutiérrez Chelyabinsk Aktiv 101 / 95 40% 2 07.02.2028 -
Ognjen Bondžulić Mladost Lucani Aktiv 86 / 108 40% 1 07.02.2028 -
Georgy Gongadze Ufa Aktiv 119 / 93 40% 1 05.02.2028 -
Yordy Reyna Rodina Aktiv 101 / 98 40% 1 05.02.2028 -
Simone Verdi Benevento Aktiv 106 / 125 40% 1 02.02.2028 -
Braian Cuello Podbeskidzie Aktiv 114 / 93 40% 1 02.02.2028 -
Alejandro Quintana Atlanta Aktiv 128 / 121 40% 1 01.02.2028 -
Agustín Gallo Tristán Suárez Aktiv 105 / 115 40% 1 31.01.2028 -
Genaro Rossi San Martín SJ Aktiv 92 / 100 40% 2 27.01.2028 -
Uilliam Barros Persib Aktiv 114 / 103 40% 4 27.01.2028 -
Oscar Belinetz Agropecuario Argentino Aktiv 123 / 109 40% 1 26.01.2028 -
Alan Bonansea Colón Aktiv 96 / 119 40% 1 25.01.2028 -
Andrew Jung Persib Aktiv 97 / 110 40% 2 24.01.2028 -
Renzo Reynaga Patronato Aktiv 113 / 104 40% 1 24.01.2028 -
Alexander Jeremejeff Persija Aktiv 116 / 116 40% 4 23.01.2028 -
Augusto Berrondo Tristán Suárez Aktiv 89 / 110 40% 1 23.01.2028 -
Boris Kopitović Bali United Aktiv 98 / 93 40% 2 22.01.2028 -
Luca Franco Arsenal Aktiv 121 / 123 40% 1 22.01.2028 -
Mihailo Perović Persebaya Aktiv 111 / 90 40% 3 21.01.2028 -
Jort van der Sande Bali United Aktiv 89 / 100 40% 3 17.01.2028 -
Adam Alis Persib Aktiv 79 / 87 37% 1 17.01.2028 -
Javier Martínez Almirante Brown Aktiv 99 / 111 40% 1 14.01.2028 -
Mateo Bajamich Atlético Tucumán Aktiv 147 / 130 40% 1 14.01.2028 -
Valdeci Arema Aktiv 93 / 94 40% 1 09.01.2028 -
Kianz Froese Semen Padang Aktiv 115 / 92 40% 3 08.01.2028 -
Elías Ayala Madryn Aktiv 84 / 118 40% 1 08.01.2028 -
Gledson PSM Aktiv 104 / 99 40% 1 12.08.2027 -
Muhammed Kabiru PSIM Aktiv 112 / 98 40% 1 05.08.2027 -
Radovan Pankov Persija Aktiv 127 / 104 40% 4 01.08.2027 -
Kerim Palić Madura United Aktiv 94 / 109 40% 1 31.07.2027 -
Erik de los Santos Racing Aktiv 102 / 126 40% 4 30.07.2027 -
Zane Albarus Cambridge United Aktiv 83 / 106 40% 3 30.07.2027 -
José Castellano Mineros de Guayana Aktiv 91 / 95 40% 1 29.07.2027 -
Imanol García Persik Aktiv 114 / 88 40% 1 29.07.2027 -
Andrés Álvarez Aguilas Doradas Aktiv 105 / 110 40% 2 27.07.2027 -
Gonzalo Asis Almagro Aktiv 122 / 128 40% 1 27.07.2027 -
Yeferson Rodallega Envigado Aktiv 129 / 108 40% 3 26.07.2027 -
Bruno Tubarão Persija Aktiv 131 / 117 40% 1 23.07.2027 -
Juan José Tello Deportivo Cali Aktiv 123 / 102 40% 1 22.07.2027 -
Mykola Buzhyn Poltava Aktiv 109 / 94 40% 1 20.07.2027 -
Sávio PSM Aktiv 107 / 88 40% 3 19.07.2027 -
Mohamad Anez Borneo Aktiv 95 / 84 40% 1 17.07.2027 -
Islamzhan Nasyrov Ryazan Aktiv 109 / 83 40% 2 15.07.2027 -
Agustín Chopitea Colon Aktiv 90 / 90 40% 2 14.07.2027 -
Milorad Stajić Brisbane Roar Aktiv 109 / 86 40% 1 14.07.2027 -
Kirill Malyarov Shinnik Aktiv 84 / 91 40% 2 12.07.2027 -
Maximiliano Ribero Central Norte Aktiv 109 / 102 40% 1 10.07.2027 -
Jaime Giraldo Semen Padang Aktiv 94 / 100 40% 2 01.07.2027 -
Simone Iob Siracusa Aktiv 121 / 95 40% 1 30.06.2027 -
Pablo Oliveira Arema Aktiv 88 / 101 40% 1 23.06.2027 -
Konstantin Kertanov Chelyabinsk Aktiv 94 / 110 40% 2 14.06.2027 -
Tim Receveur Aktiv 84 / 107 37% 1 04.06.2027 -
David Kokoev Yenisey Aktiv 121 / 99 40% 2 28.05.2027 -
Kamil Ibragimov Volga Aktiv 100 / 99 40% 1 26.05.2027 -
Ruslan Chobanov Chaika Aktiv 88 / 110 40% 1 24.05.2027 -
Vasily Cherov Ufa Aktiv 99 / 115 40% 2 23.05.2027 -
Josh Dacres-Cogley Stockport County Aktiv 99 / 102 40% 2 20.05.2027 -
Mattia Capoferri Pergolettese Aktiv 89 / 105 40% 1 17.05.2027 -
Pavel Maslov Chaika Aktiv 115 / 113 40% 4 15.05.2027 -
Timofey Kalistratov KAMAZ Aktiv 102 / 87 40% 1 15.05.2027 -
Finley McAllister Grimsby Town Aktiv 67 / 90 40% 1 10.05.2027 -
Vladis Emmersón Yenisey Aktiv 85 / 91 40% 1 06.05.2027 -
Oleg Lanin Shinnik Aktiv 110 / 101 40% 1 27.04.2027 -
Nikita Pechenkin Sokol Aktiv 78 / 116 40% 2 22.04.2027 -
Nikolay Tarasov Spartak Kostroma Aktiv 111 / 107 40% 1 21.04.2027 -
Tigran Avanesyan Arsenal Tula Aktiv 85 / 93 40% 1 17.04.2027 -
Léo Cordeiro Ural Aktiv 117 / 103 40% 2 14.04.2027 -
Roman Zaschepkin KAMAZ Aktiv 76 / 112 40% 1 02.02.2027 -
Septian David Maluku Utara United Aktiv 89 / 92 37% 1 04.01.2027 -
Júnior Brandão Madura United Abgelehnt 126 / 111 40% 3 30.12.2026 Ablehnen
Mevran Ablak Angusht Aktiv 87 / 66 40% 1 30.12.2026 -
Aleksej Golijanin Sokol Abgelehnt 104 / 96 40% 2 29.12.2026 Mehr Infos nötig
Nikita Simdyankin KDV Tomsk Aktiv 108 / 78 40% 1 27.12.2026 -
Magomed Nasibov Pobeda Aktiv 86 / 104 40% 1 26.12.2026 -
Dalberto Arema Aktiv 115 / 112 40% 4 25.12.2026 -
Daniil Kondrakov KDV Tomsk Aktiv 113 / 80 40% 1 25.12.2026 -
Milan Ristovski Bhayangkara Presisi Aktiv 124 / 117 40% 5 24.12.2026 -
Georgy Melkadze Akhmat Grozny Aktiv 137 / 104 40% 2 24.12.2026 -
Artem Maximenko Nizhniy Novgorod Aktiv 86 / 103 40% 1 22.12.2026 -
Amur Kalmykov Spartak Kostroma Abgelehnt 113 / 100 40% 2 18.12.2026 Mehr Infos nötig
Anton Betyuzhnov Dinamo Vologda Aktiv 54 / 70 40% 1 18.12.2026 -
Alexey Skvortsov Metallurg Aktiv 77 / 100 40% 2 17.12.2026 -
Carlos Zepeda Strogino Aktiv 74 / 64 40% 1 16.12.2026 -
Anton Fase PSIM Aktiv 113 / 105 40% 4 15.12.2026 -
Ilja Azyavin Arsenal Tula Aktiv 83 / 95 40% 1 15.12.2026 -
Vladislav Sarveli Nizhniy Novgorod Aktiv 97 / 103 40% 1 14.12.2026 -
Kodai Tanaka PSM Aktiv 81 / 84 40% 3 13.12.2026 -
Hazeem Bakre Crawley Town Aktiv 74 / 78 40% 1 11.12.2026 -
Naoufel Zerhouni Persib Abgelehnt 99 / 109 40% 5 09.12.2026 Ablehnen
Ruslan Apekov Torpedo Moscow Aktiv 97 / 95 40% 2 07.12.2026 -
Ekain Orobengoa Real Sociedad Aktiv 116 / 84 40% 1 03.12.2026 -
Diego Campos Bali United Aktiv 119 / 115 40% 3 30.11.2026 -
Tomás Orqueida Mattersburg Aktiv 98 / 117 40% 2 30.11.2026 -
Mikhail Gainov Dinamo Stavropol Aktiv 59 / 91 40% 1 29.11.2026 -
Amar Rahmanović Krylya Sovetov Aktiv 101 / 125 40% 1 22.11.2026 -
Lucas Morelatto Persijap Aktiv 113 / 92 40% 1 19.11.2026 -
Nermin Haljeta PSIM Aktiv 96 / 100 40% 2 14.11.2026 -
Alexandre Ramalingom Persita Aktiv 126 / 116 40% 3 13.11.2026 -
Luka Čumić PSM Aktiv 100 / 108 40% 3 11.11.2026 -
Cecilio Waterman Aktiv 100 / 102 40% 1 09.11.2026 -
Gustavo França Arema Aktiv 97 / 100 40% 4 04.11.2026 -
Gaspar Duarte Rosario Central Aktiv 113 / 122 40% 1 02.11.2026 -
Ayman Sellouf Persija Aktiv 106 / 90 40% 3 31.10.2026 -
Alexis Gómez Persijap Aktiv 103 / 108 40% 2 21.10.2026 -
Oswaldo Valencia Arema Aktiv 100 / 88 40% 1 21.10.2026 -
Adrián Dalmau PSIM Aktiv 102 / 115 40% 3 20.10.2026 -
Sergio Castel Persik Aktiv 99 / 120 40% 2 19.10.2026 -
Moussa Sidibé Bhayangkara Presisi Aktiv 93 / 102 40% 3 19.10.2026 -
Bruno Hernández Cerro Largo Aktiv 110 / 84 40% 1 17.10.2026 -
Abu Kamara Persis Aktiv 109 / 93 40% 1 14.10.2026 -
Jurica Poldrugač Rudes Aktiv 98 / 112 40% 2 12.10.2026 -
Mohcine Hassan PSBS Biak Aktiv 82 / 88 40% 2 11.10.2026 -
Maximo Ingravidi Colón Aktiv 107 / 121 40% 2 08.10.2026 -
Gustavo Almeida Persija Aktiv 82 / 83 40% 1 04.10.2026 -
Pedro Lucas Olimpija Ljubljana Aktiv 130 / 84 40% 1 04.10.2026 -
Sutanto Tan Persis Aktiv 76 / 70 40% 1 30.09.2026 -
Marcos Camarda Santiago Wanderers Aktiv 111 / 96 40% 1 28.09.2026 -
Isaac Matondo Koper Aktiv 85 / 118 40% 1 26.09.2026 -
Francisco Galván Deportivo Municipal Aktiv 125 / 107 40% 2 25.09.2026 -
Bernard Henri Doumbia Bhayangkara Presisi Aktiv 87 / 79 40% 1 24.09.2026 -
Diego Valencia Universidad Catolica Aktiv 119 / 121 40% 1 22.09.2026 -
Rhys Oates Mansfield Town Aktiv 91 / 111 40% 1 15.09.2026 -
Diego Maurício Semen Padang Aktiv 96 / 106 40% 1 13.09.2026 -
Agustín Bianciotti Metropolitanos Aktiv 97 / 106 40% 1 13.09.2026 -
Koldo Obieta Borneo Aktiv 115 / 96 40% 1 12.09.2026 -
Guillermo Semen Padang Aktiv 73 / 92 40% 1 09.09.2026 -
Ahmad Noviandani Madura United Aktiv 84 / 95 40% 1 09.09.2026 -
Tobías Ganduglia Independiente Rivadavia Aktiv 109 / 85 40% 1 04.09.2026 -
Dedik Setiawan Arema Aktiv 86 / 98 40% 1 20.08.2026 -
Joaquín Zappacosta Morón Aktiv 93 / 93 40% 1 17.08.2026 -
Danilo Santacruz Madura United Aktiv 120 / 113 40% 1 12.08.2026 -
Riquelme Madura United Aktiv 94 / 102 40% 1 11.08.2026 -
Ciro Aktiv 87 / 98 37% 1 10.08.2026 -
Ignacio Cuello Atlético Tucumán Aktiv 70 / 94 40% 1 08.08.2026 -
Nicolás Orsini Barracas Central Aktiv 125 / 132 40% 1 02.08.2026 -